H1 CPF 2 NER 2022 4 20 9 110 01 glonass138 H2 1805301 9138 43508 2022 4 20 0 0 0 2022 4 23 23 45 0 900 1 1 0 0 0 1 H9 10 0 59689 0.00000 0 -8953697.178 -10233561.277 -21569093.392 10 0 59689 900.00000 0 -8805109.711 -12812551.330 -20212694.952 10 0 59689 1800.00000 0 -8849689.767 -15204101.497 -18463357.803 10 0 59689 2700.00000 0 -9058245.575 -17348550.503 -16355179.493 10 0 59689 3600.00000 0 -9391802.563 -19194488.014 -13929215.586 10 0 59689 4500.00000 0 -9803408.131 -20700697.121 -11232674.981 10 0 59689 5400.00000 0 -10240284.441 -21837680.676 -8317996.755 10 0 59689 6300.00000 0 -10646237.470 -22588708.972 -5241826.730 10 0 59689 7200.00000 0 -10964219.959 -22950346.275 -2063914.086 10 0 59689 8100.00000 0 -11138939.474 -22932435.705 1154050.300 10 0 59689 9000.00000 0 -11119401.142 -22557544.573 4349631.003 10 0 59689 9900.00000 0 -10861277.557 -21859894.839 7460857.202 10 0 59689 10800.00000 0 -10329005.743 -20883824.790 10427420.428 10 0 59689 11700.00000 0 -9497522.771 -19681847.447 13191837.877 10 0 59689 12600.00000 0 -8353566.855 -18312387.762 15700559.067 10 0 59689 13500.00000 0 -6896488.992 -16837293.751 17904995.041 10 0 59689 14400.00000 0 -5138540.620 -15319225.733 19762451.006 10 0 59689 15300.00000 0 -3104624.558 -13819032.543 21236945.179 10 0 59689 16200.00000 0 -831518.593 -12393223.801 22299898.987 10 0 59689 17100.00000 0 1633397.275 -11091643.011 22930686.105 10 0 59689 18000.00000 0 4233858.410 -9955437.820 23117030.371 10 0 59689 18900.00000 0 6906808.344 -9015411.369 22855245.280 10 0 59689 19800.00000 0 9584781.695 -8290822.857 22150310.483 10 0 59689 20700.00000 0 12198479.980 -7788687.055 21015783.456 10 0 59689 21600.00000 0 14679435.044 -7503601.817 19473547.381 10 0 59689 22500.00000 0 16962650.831 -7418110.921 17553399.108 10 0 59689 23400.00000 0 18989114.579 -7503587.348 15292483.984 10 0 59689 24300.00000 0 20708073.550 -7721600.323 12734587.248 10 0 59689 25200.00000 0 22078982.566 -8025709.122 9929294.472 10 0 59689 26100.00000 0 23073040.786 -8363608.403 6931036.370 10 0 59689 27000.00000 0 23674253.040 -8679534.722 3798035.824 10 0 59689 27900.00000 0 23879970.683 -8916832.331 591177.155 10 0 59689 28800.00000 0 23700888.584 -9020569.249 -2627180.179 10 0 59689 29700.00000 0 23160497.949 -8940091.906 -5794420.006 10 0 59689 30600.00000 0 22294017.666 -8631408.977 -8848895.542 10 0 59689 31500.00000 0 21146849.150 -8059301.909 -11731138.230 10 0 59689 32400.00000 0 19772620.026 -7199071.196 -14385024.809 10 0 59689 33300.00000 0 18230899.529 -6037842.761 -16758878.841 10 0 59689 34200.00000 0 16584682.539 -4575377.654 -18806484.306 10 0 59689 35100.00000 0 14897748.873 -2824349.352 -20487990.914 10 0 59689 36000.00000 0 13232009.617 -810075.647 -21770693.106 10 0 59689 36900.00000 0 11644952.589 1430284.663 -22629667.413 10 0 59689 37800.00000 0 10187294.520 3849037.442 -23048255.922 10 0 59689 38700.00000 0 8900938.420 6389707.225 -23018386.758 10 0 59689 39600.00000 0 7817321.509 8989166.591 -22540725.756 10 0 59689 40500.00000 0 6956222.177 11580052.309 -21624656.914 10 0 59689 41400.00000 0 6325074.978 14093367.720 -20288092.480 10 0 59689 42300.00000 0 5918821.070 16461162.974 -18557116.866 10 0 59689 43200.00000 0 5720298.859 18619181.705 -16465471.744 10 0 59689 44100.00000 0 5701156.823 20509364.177 -14053892.679 10 0 59689 45000.00000 0 5823248.554 22082102.934 -11369310.602 10 0 59689 45900.00000 0 6040449.794 23298157.537 -8463933.947 10 0 59689 46800.00000 0 6300819.515 24130149.282 -5394229.610 10 0 59689 47700.00000 0 6549012.834 24563574.402 -2219822.911 10 0 59689 48600.00000 0 6728842.997 24597294.566 997661.775 10 0 59689 49500.00000 0 6785883.672 24243485.365 4195796.999 10 0 59689 50400.00000 0 6670001.253 23527046.179 7312561.353 10 0 59689 51300.00000 0 6337710.100 22484497.253 10287538.306 10 0 59689 52200.00000 0 5754251.212 21162411.178 13063081.706 10 0 59689 53100.00000 0 4895306.715 19615445.087 15585425.659 10 0 59689 54000.00000 0 3748277.824 17904056.325 17805717.928 10 0 59689 54900.00000 0 2313072.259 16091997.097 19680957.644 10 0 59689 55800.00000 0 602367.556 14243692.464 21174819.999 10 0 59689 56700.00000 0 -1358661.638 12421610.525 22258352.949 10 0 59689 57600.00000 0 -3533142.104 10683733.600 22910533.302 10 0 59689 58500.00000 0 -5873794.528 9081234.878 23118672.106 10 0 59689 59400.00000 0 -8324667.843 7656456.351 22878661.913 10 0 59689 60300.00000 0 -10823245.119 6441271.337 22195061.225 10 0 59689 61200.00000 0 -13302835.252 5455899.153 21081014.153 10 0 59689 62100.00000 0 -15695152.770 4708220.848 19558006.215 10 0 59689 63000.00000 0 -17932980.030 4193624.268 17655459.970 10 0 59689 63900.00000 0 -19952802.053 3895384.938 15410177.184 10 0 59689 64800.00000 0 -21697305.041 3785566.887 12865637.036 10 0 59689 65700.00000 0 -23117634.612 3826405.811 10071162.716 10 0 59689 66600.00000 0 -24175319.194 3972116.595 7080971.602 10 0 59689 67500.00000 0 -24843777.672 4171049.036 3953126.692 10 0 59689 68400.00000 0 -25109347.286 4368100.611 748409.265 10 0 59689 69300.00000 0 -24971787.827 4507283.808 -2470865.212 10 0 59689 70200.00000 0 -24444240.079 4534338.553 -5642064.493 10 0 59689 71100.00000 0 -23552639.624 4399277.982 -8703465.875 10 0 59689 72000.00000 0 -22334610.233 4058758.336 -11595466.517 10 0 59689 72900.00000 0 -20837883.301 3478171.049 -14261753.152 10 0 59689 73800.00000 0 -19118310.013 2633366.777 -16650407.414 10 0 59689 74700.00000 0 -17237550.301 1511936.889 -18714924.254 10 0 59689 75600.00000 0 -15260536.283 113996.713 -20415123.011 10 0 59689 76500.00000 0 -13252817.350 -1547563.894 -21717932.994 10 0 59689 77400.00000 0 -11277898.853 -3447374.290 -22598038.076 10 0 59689 78300.00000 0 -9394686.289 -5548409.765 -23038367.935 10 0 59689 79200.00000 0 -7655142.099 -7803317.266 -23030426.669 10 0 59689 80100.00000 0 -6102252.922 -10156185.073 -22574452.806 10 0 59689 81000.00000 0 -4768391.695 -12544682.745 -21679408.129 10 0 59689 81900.00000 0 -3674142.092 -14902482.195 -20362796.014 10 0 59689 82800.00000 0 -2827633.231 -17161858.842 -18650313.311 10 0 59689 83700.00000 0 -2224410.850 -19256364.455 -16575342.965 10 0 59689 84600.00000 0 -1847848.581 -21123460.286 -14178297.593 10 0 59689 85500.00000 0 -1670080.251 -22707000.774 -11505827.192 10 0 59690 0.00000 0 -1653412.153 -23959464.369 -8609906.932 10 0 59690 900.00000 0 -1752154.203 -24843839.411 -5546821.494 10 0 59690 1800.00000 0 -1914791.347 -25335085.212 -2376070.021 10 0 59690 2700.00000 0 -2086402.366 -25421110.324 840791.986 10 0 59690 3600.00000 0 -2211223.132 -25103226.165 4041347.202 10 0 59690 4500.00000 0 -2235245.431 -24396058.727 7163525.587 10 0 59690 5400.00000 0 -2108741.239 -23326922.873 10146804.300 10 0 59690 6300.00000 0 -1788605.743 -21934686.209 12933375.406 10 0 59690 7200.00000 0 -1240420.251 -20268170.715 15469258.968 10 0 59690 8100.00000 0 -440148.035 -18384159.286 17705340.625 10 0 59690 9000.00000 0 624608.395 -16345090.468 19598314.358 10 0 59690 9900.00000 0 1953841.694 -14216537.338 21111512.995 10 0 59690 10800.00000 0 3534898.490 -12064574.957 22215611.407 10 0 59690 11700.00000 0 5342773.662 -9953145.178 22889189.649 10 0 59690 12600.00000 0 7340928.994 -7941527.467 23119145.816 10 0 59690 13500.00000 0 9482603.643 -6082019.802 22900951.106 10 0 59690 14400.00000 0 11712563.550 -4417924.989 22238742.231 10 0 59690 15300.00000 0 13969218.740 -2981925.268 21145249.102 10 0 59690 16200.00000 0 16187022.157 -1794912.054 19641558.540 10 0 59690 17100.00000 0 18299051.772 -865319.020 17756717.612 10 0 59690 18000.00000 0 20239669.592 -188986.113 15527183.111 10 0 59690 18900.00000 0 21947147.591 250440.005 12996126.558 10 0 59690 19800.00000 0 23366151.326 480585.863 10212606.935 10 0 59690 20700.00000 0 24449977.274 538950.004 7230626.205 10 0 59690 21600.00000 0 25162449.745 471079.772 4108085.169 10 0 59690 22500.00000 0 25479397.003 328403.102 905659.511 10 0 59690 23400.00000 0 25389643.552 165807.333 -2314382.010 10 0 59690 24300.00000 0 24895475.834 39068.150 -5489393.874 10 0 59690 25200.00000 0 24012560.699 2238.498 -8557580.261 10 0 59690 26100.00000 0 22769319.300 105109.303 -11459206.719 10 0 59690 27000.00000 0 21205782.203 390851.015 -14137772.458 10 0 59690 27900.00000 0 19371973.615 893937.398 -16541119.400 10 0 59690 28800.00000 0 17325892.792 1638440.960 -18622455.402 10 0 59690 29700.00000 0 15131177.641 2636773.577 -20341271.078 10 0 59690 30600.00000 0 12854548.987 3888926.852 -21664131.961 10 0 59690 31500.00000 0 10563143.112 5382245.335 -22565330.336 10 0 59690 32400.00000 0 8321844.535 7091743.114 -23027384.243 10 0 59690 33300.00000 0 6190730.737 8980951.216 -23041374.198 10 0 59690 34200.00000 0 4222735.490 11003260.720 -22607111.514 10 0 59690 35100.00000 0 2461627.850 13103705.642 -21733135.467 10 0 59690 36000.00000 0 940390.341 15221111.178 -20436539.866 10 0 59690 36900.00000 0 -319937.150 17290517.450 -18742632.880 10 0 59690 37800.00000 0 -1310901.001 19245777.471 -16684437.205 10 0 59690 38700.00000 0 -2036739.945 21022220.750 -14302040.600 10 0 59690 39600.00000 0 -2513951.050 22559271.162 -11641809.850 10 0 59690 40500.00000 0 -2770335.886 23802909.759 -8755483.742 10 0 59690 41400.00000 0 -2843568.850 24707879.717 -5699162.944 10 0 59690 42300.00000 0 -2779349.693 25239541.473 -2532216.870 10 0 59690 43200.00000 0 -2629219.605 25375300.882 683870.999 10 0 59690 44100.00000 0 -2448134.199 25105551.180 3886696.659 10 0 59690 45000.00000 0 -2291896.705 24434089.978 7014144.560 10 0 59690 45900.00000 0 -2214560.299 23377994.508 10005588.558 10 0 59690 46800.00000 0 -2265909.512 21966960.960 12803061.733 10 0 59690 47700.00000 0 -2489127.034 20242136.014 15352372.665 10 0 59690 48600.00000 0 -2918744.240 18254489.664 17604147.156 10 0 59690 49500.00000 0 -3578961.689 16062797.200 19514776.018 10 0 59690 50400.00000 0 -4482410.289 13731314.208 21047251.400 10 0 59690 51300.00000 0 -5629405.439 11327240.759 22171876.447 10 0 59690 52200.00000 0 -7007726.033 8918079.364 22866835.469 10 0 59690 53100.00000 0 -8592928.462 6568995.465 23118614.240 10 0 59690 54000.00000 0 -10349183.795 4340288.870 22922262.816 10 0 59690 54900.00000 0 -12230604.705 2285079.899 22281495.867 10 0 59690 55800.00000 0 -14183008.452 447305.270 21208628.344 10 0 59690 56700.00000 0 -16146044.142 -1139893.975 19724347.093 10 0 59690 57600.00000 0 -18055597.210 -2455326.227 17857321.875 10 0 59690 58500.00000 0 -19846372.112 -3490397.129 15643662.192 10 0 59690 59400.00000 0 -21454546.412 -4249224.768 13126229.130 10 0 59690 60300.00000 0 -22820385.902 -4748217.599 10353814.310 10 0 59690 61200.00000 0 -23890711.284 -5015132.796 7380200.838 10 0 59690 62100.00000 0 -24621112.659 -5087654.725 4263123.691 10 0 59690 63000.00000 0 -24977818.063 -5011553.576 1063149.250 10 0 59690 63900.00000 0 -24939136.381 -4838502.177 -2157504.131 10 0 59690 64800.00000 0 -24496412.702 -4623643.855 -5336181.281 10 0 59690 65700.00000 0 -23654454.599 -4423015.121 -8411016.729 10 0 59690 66600.00000 0 -22431410.221 -4290933.371 -11322147.679 10 0 59690 67500.00000 0 -20858102.381 -4277461.554 -14012888.809 10 0 59690 68400.00000 0 -18976845.997 -4426058.607 -16430844.969 10 0 59690 69300.00000 0 -16839798.278 -4771516.510 -18528939.119 10 0 59690 70200.00000 0 -14506910.885 -5338272.627 -20266334.806 10 0 59690 71100.00000 0 -12043570.073 -6139169.883 -21609234.821 10 0 59690 72000.00000 0 -9518023.959 -7174718.141 -22531540.218 10 0 59690 72900.00000 0 -6998704.802 -8432888.753 -23015357.060 10 0 59690 73800.00000 0 -4551558.231 -9889451.618 -23051341.271 10 0 59690 74700.00000 0 -2237490.945 -11508840.922 -22638875.318 10 0 59690 75600.00000 0 -110042.894 -13245513.532 -21786073.815 10 0 59690 76500.00000 0 1786619.676 -15045743.149 -20509618.405 10 0 59690 77400.00000 0 3419307.640 -16849774.978 -18834425.651 10 0 59690 78300.00000 0 4766943.403 -18594250.570 -16793154.822 10 0 59690 79200.00000 0 5821180.631 -20214801.178 -14425565.495 10 0 59690 80100.00000 0 6586485.279 -21648700.822 -11777737.861 10 0 59690 81000.00000 0 7079676.587 -22837467.890 -8901171.202 10 0 59690 81900.00000 0 7328949.395 -23729306.265 -5851778.368 10 0 59690 82800.00000 0 7372420.768 -24281283.734 -2688796.160 10 0 59690 83700.00000 0 7256263.909 -24461156.609 526366.895 10 0 59690 84600.00000 0 7032509.438 -24248764.362 3731322.779 10 0 59690 85500.00000 0 6756607.908 -23636936.211 6863912.806 10 0 59691 0.00000 0 6484857.213 -22631872.228 9863409.318 10 0 59691 900.00000 0 6271803.742 -21252982.755 12671688.668 10 0 59691 1800.00000 0 6167727.420 -19532194.608 15234349.027 10 0 59691 2700.00000 0 6216316.091 -17512751.374 17501757.355 10 0 59691 3600.00000 0 6452627.422 -15247558.984 19430001.921 10 0 59691 4500.00000 0 6901423.736 -12797144.696 20981734.451 10 0 59691 5400.00000 0 7575949.749 -10227313.828 22126886.272 10 0 59691 6300.00000 0 8477204.725 -7606600.650 22843245.527 10 0 59691 7200.00000 0 9593740.033 -5003618.231 23116884.963 10 0 59691 8100.00000 0 10901991.470 -2484415.890 22942432.536 10 0 59691 9000.00000 0 12367133.640 -109952.502 22323179.732 10 0 59691 9900.00000 0 13944422.074 2066210.693 21271025.248 10 0 59691 10800.00000 0 15580968.623 3999903.178 19806254.549 10 0 59691 11700.00000 0 17217877.518 5657942.285 17957158.601 10 0 59691 12600.00000 0 18792654.200 7019268.483 15759498.034 10 0 59691 13500.00000 0 20241787.305 8075572.019 13255821.824 10 0 59691 14400.00000 0 21503396.430 8831384.949 10494652.436 10 0 59691 15300.00000 0 22519834.888 9303634.805 7529552.188 10 0 59691 16200.00000 0 23240137.993 9520678.723 4418088.141 10 0 59691 17100.00000 0 23622213.249 9520858.773 1220715.142 10 0 59691 18000.00000 0 23634679.229 9350639.614 -2000401.227 10 0 59691 18900.00000 0 23258274.362 9062407.581 -5182598.563 10 0 59691 19800.00000 0 22486774.797 8712024.941 -8263944.164 10 0 59691 20700.00000 0 21327381.258 8356243.725 -11184449.215 10 0 59691 21600.00000 0 19800557.275 8050089.763 -13887246.033 10 0 59691 22500.00000 0 17939324.548 7844328.937 -16319704.361 10 0 59691 23400.00000 0 15788044.336 7783124.183 -18434463.995 10 0 59691 24300.00000 0 13400735.607 7901983.604 -20190362.926 10 0 59691 25200.00000 0 10839000.271 8226087.566 -21553242.490 10 0 59691 26100.00000 0 8169642.427 8769066.308 -22496613.597 10 0 59691 27000.00000 0 5462081.296 9532280.355 -23002171.190 10 0 59691 27900.00000 0 2785665.856 10504634.545 -23060147.214 10 0 59691 28800.00000 0 207003.291 11662933.729 -22669495.610 10 0 59691 29700.00000 0 -2212587.737 12972765.284 -21837906.292 10 0 59691 30600.00000 0 -4419393.430 14389871.312 -20581648.307 10 0 59691 31500.00000 0 -6369295.114 15861952.686 -18925245.761 10 0 59691 32400.00000 0 -8029351.696 17330829.004 -16900993.223 10 0 59691 33300.00000 0 -9378909.839 18734863.528 -14548320.409 10 0 59691 34200.00000 0 -10410197.195 20011551.031 -11913018.888 10 0 59691 35100.00000 0 -11128375.901 21100159.725 -9046346.117 10 0 59691 36000.00000 0 -11551056.136 21944316.178 -6004024.558 10 0 59691 36900.00000 0 -11707292.139 22494424.569 -2845155.665 10 0 59691 37800.00000 0 -11636104.820 22709818.731 368929.822 10 0 59691 38700.00000 0 -11384594.798 22560556.685 3575862.763 10 0 59691 39600.00000 0 -11005726.698 22028782.531 6713444.232 10 0 59691 40500.00000 0 -10555879.125 21109598.764 9720848.415 10 0 59691 41400.00000 0 -10092264.253 19811412.617 12539796.593 10 0 59691 42300.00000 0 -9670326.076 18155742.075 15115679.692 10 0 59691 43200.00000 0 -9341226.952 16176489.614 17398608.250 10 0 59691 44100.00000 0 -9149528.040 13918713.719 19344370.217 10 0 59691 45000.00000 0 -9131160.869 11436948.964 20915278.875 10 0 59691 45900.00000 0 -9311774.973 8793143.755 22080895.445 10 0 59691 46800.00000 0 -9705530.800 6054300.452 22818613.307 10 0 59691 47700.00000 0 -10314388.551 3289914.641 23114093.237 10 0 59691 48600.00000 0 -11127923.172 569318.367 22961541.775 10 0 59691 49500.00000 0 -12123673.948 -2040963.972 22363827.464 10 0 59691 50400.00000 0 -13268015.116 -4479738.785 21332432.530 10 0 59691 51300.00000 0 -14517512.303 -6693442.146 19887240.344 10 0 59691 52200.00000 0 -15820709.457 -8638119.993 18056161.850 10 0 59691 53100.00000 0 -17120272.748 -10281008.065 15874607.080 10 0 59691 54000.00000 0 -18355402.820 -11601646.394 13384810.702 10 0 59691 54900.00000 0 -19464415.044 -12592482.120 10635023.400 10 0 59691 55800.00000 0 -20387379.878 -13258935.513 7678583.715 10 0 59691 56700.00000 0 -21068712.268 -13618926.475 4572887.525 10 0 59691 57600.00000 0 -21459600.603 -13701881.446 1378274.657 10 0 59691 58500.00000 0 -21520171.887 -13547262.601 -1843145.687 10 0 59691 59400.00000 0 -21221300.567 -13202681.688 -5028707.555 10 0 59691 60300.00000 0 -20545983.143 -12721678.668 -8116414.689 10 0 59691 61200.00000 0 -19490219.014 -12161259.804 -11046155.870 10 0 59691 62100.00000 0 -18063358.835 -11579300.310 -13760884.510 10 0 59691 63000.00000 0 -16287904.318 -11031922.553 -16207738.457 10 0 59691 63900.00000 0 -14198766.815 -10570961.893 -18339077.193 10 0 59691 64800.00000 0 -11842014.988 -10241628.420 -20113415.519 10 0 59691 65700.00000 0 -9273163.558 -10080464.432 -21496235.103 10 0 59691 66600.00000 0 -6555074.573 -10113684.681 -22460657.814 10 0 59691 67500.00000 0 -3755558.803 -10355969.941 -22987967.875 10 0 59691 68400.00000 0 -944777.363 -10809765.099 -23067972.930 10 0 59691 69300.00000 0 1807448.112 -11465111.349 -22699197.401 10 0 59691 70200.00000 0 4434304.866 -12300019.433 -21888904.912 10 0 59691 71100.00000 0 6874527.295 -13281367.915 -20652949.820 10 0 59691 72000.00000 0 9074698.967 -14366288.317 -19015461.241 10 0 59691 72900.00000 0 10991223.504 -15503978.379 -17008366.172 10 0 59691 73800.00000 0 12591883.467 -16637866.785 -14670761.315 10 0 59691 74700.00000 0 13856923.639 -17708037.791 -12048146.220 10 0 59691 75600.00000 0 14779615.278 -18653813.438 -9191532.967 10 0 59691 76500.00000 0 15366279.605 -19416384.361 -6156449.974 10 0 59691 77400.00000 0 15635771.506 -19941378.277 -3001859.678 10 0 59691 78300.00000 0 15618447.022 -20181257.932 210988.577 10 0 59691 79200.00000 0 15354659.826 -20097447.595 3419747.957 10 0 59691 80100.00000 0 14892851.386 -19662098.674 6562182.447 10 0 59691 81000.00000 0 14287316.480 -18859420.337 9577370.605 10 0 59691 81900.00000 0 13595738.934 -17686519.271 12406881.541 10 0 59691 82800.00000 0 12876601.837 -16153713.395 14995900.528 10 0 59691 83700.00000 0 12186581.346 -14284306.178 17294283.051 10 0 59691 84600.00000 0 11578033.493 -12113830.625 19257517.600 10 0 59691 85500.00000 0 11096679.265 -9688793.929 20847579.381 10 0 59692 0.00000 0 10779584.674 -7064974.421 22033659.328 10 0 59692 900.00000 0 10653519.980 -4305339.083 22792755.768 10 0 59692 1800.00000 0 10733766.898 -1477670.383 23110116.512 10 0 59692 2700.00000 0 11023423.124 1348005.308 22979525.497 10 0 59692 3600.00000 0 11513234.002 4102079.203 22403426.904 10 0 59692 4500.00000 0 12181958.716 6718003.994 21392884.876 10 0 59692 5400.00000 0 12997256.551 9134811.726 19967378.936 10 0 59692 6300.00000 0 13917057.157 11299402.380 18154438.162 10 0 59692 7200.00000 0 14891358.510 13168508.910 15989120.062 10 0 59692 8100.00000 0 15864378.202 14710257.612 13513343.002 10 0 59692 9000.00000 0 16776968.630 15905259.109 10775083.816 10 0 59692 9900.00000 0 17569195.029 16747184.379 7827455.120 10 0 59692 10800.00000 0 18182967.989 17242801.742 4727679.371 10 0 59692 11700.00000 0 18564619.145 17411473.070 1535979.064 10 0 59692 12600.00000 0 18667310.606 17284130.384 -1685595.332 10 0 59692 13500.00000 0 18453175.198 16901776.019 -4874376.672 10 0 59692 14400.00000 0 17895095.658 16313569.942 -7968307.426 10 0 59692 15300.00000 0 16978045.967 15574585.503 -10907156.124 10 0 59692 16200.00000 0 15699936.518 14743329.245 -13633699.242 10 0 59692 17100.00000 0 14071925.792 13879130.513 -16094844.483 10 0 59692 18000.00000 0 12118184.054 13039512.233 -18242672.538 10 0 59692 18900.00000 0 9875117.812 12277654.960 -20035376.330 10 0 59692 19800.00000 0 7390086.670 11640062.177 -21438078.968 10 0 59692 20700.00000 0 4719665.855 11164526.077 -22423514.213 10 0 59692 21600.00000 0 1927526.677 10878480.044 -22972556.307 10 0 59692 22500.00000 0 -917976.772 10797807.399 -23074589.122 10 0 59692 23400.00000 0 -3746414.096 10926156.472 -22727707.833 10 0 59692 24300.00000 0 -6487969.852 11254790.419 -21938749.723 10 0 59692 25200.00000 0 -9076107.857 11762977.569 -20723154.032 10 0 59692 26100.00000 0 -11450098.005 12418905.132 -19104654.077 10 0 59692 27000.00000 0 -13557301.161 13181077.095 -17114808.070 10 0 59692 27900.00000 0 -15355117.944 14000136.678 -14792378.130 10 0 59692 28800.00000 0 -16812521.273 14821035.896 -12182569.924 10 0 59692 29700.00000 0 -17911110.253 15585460.219 -9336148.056 10 0 59692 30600.00000 0 -18645642.982 16234405.607 -6308444.624 10 0 59692 31500.00000 0 -19024027.707 16710798.926 -3158280.668 10 0 59692 32400.00000 0 -19066774.557 16962050.974 53178.327 10 0 59692 33300.00000 0 -18805932.565 16942434.353 3263610.342 10 0 59692 34200.00000 0 -18283558.204 16615185.903 6410744.823 10 0 59692 35100.00000 0 -17549781.147 15954245.164 9433567.274 10 0 59692 36000.00000 0 -16660549.564 14945555.663 12273497.195 10 0 59692 36900.00000 0 -15675150.396 13587874.318 14875516.739 10 0 59692 37800.00000 0 -14653609.107 11893054.746 17189228.787 10 0 59692 38700.00000 0 -13654078.024 9885792.181 19169824.681 10 0 59692 39600.00000 0 -12730322.553 7602840.048 20778943.683 10 0 59692 40500.00000 0 -11929410.101 5091729.923 21985408.504 10 0 59692 41400.00000 0 -11289697.904 2409046.950 22765823.591 10 0 59692 42300.00000 0 -10839203.405 -381668.943 23105025.326 10 0 59692 43200.00000 0 -10594424.917 -3212310.503 22996375.970 10 0 59692 44100.00000 0 -10559661.677 -6012781.969 22441895.881 10 0 59692 45000.00000 0 -10726861.804 -8713663.853 21452231.248 10 0 59692 45900.00000 0 -11076004.877 -11248854.768 20046457.452 10 0 59692 46800.00000 0 -11576003.739 -13558081.978 18251720.961 10 0 59692 47700.00000 0 -12186088.488 -15589177.338 16102725.580 10 0 59692 48600.00000 0 -12857615.451 -17300024.660 13641071.768 10 0 59692 49500.00000 0 -13536225.890 -18660097.719 10914460.514 10 0 59692 50400.00000 0 -14164264.142 -19651524.674 7975776.151 10 0 59692 51300.00000 0 -14683353.561 -20269634.246 4882065.052 10 0 59692 52200.00000 0 -15037021.402 -20522960.486 1693429.455 10 0 59692 53100.00000 0 -15173261.182 -20432705.640 -1528142.055 10 0 59692 54000.00000 0 -15046923.202 -20031683.556 -4719984.460 10 0 59692 54900.00000 0 -14621830.771 -19362788.230 -7819982.419 10 0 59692 55800.00000 0 -13872531.054 -18477052.293 -10767787.748 10 0 59692 56700.00000 0 -12785604.780 -17431378.000 -13506003.528 10 0 59692 57600.00000 0 -11360477.765 -16286037.184 -15981310.763 10 0 59692 58500.00000 0 -9609698.410 -15102046.635 -18145514.588 10 0 59692 59400.00000 0 -7558668.055 -13938530.567 -19956488.940 10 0 59692 60300.00000 0 -5244834.337 -12850182.225 -21379000.804 10 0 59692 61200.00000 0 -2716380.555 -11884932.314 -22385397.708 10 0 59692 62100.00000 0 -30465.285 -11081922.798 -22956145.175 10 0 59692 63000.00000 0 2748914.637 -10469871.467 -23080203.918 10 0 59692 63900.00000 0 5553348.726 -10065895.796 -22755239.851 10 0 59692 64800.00000 0 8312624.270 -9874845.036 -21987663.325 10 0 59692 65700.00000 0 10957416.009 -9889167.790 -20792497.346 10 0 59692 66600.00000 0 13421942.326 -10089319.695 -19193077.833 10 0 59692 67500.00000 0 15646477.898 -10444692.936 -17220592.177 10 0 59692 68400.00000 0 17579618.801 -10915027.381 -14913465.450 10 0 59692 69300.00000 0 19180206.529 -11452242.834 -12316606.573 10 0 59692 70200.00000 0 20418831.791 -12002614.219 -9480529.428 10 0 59692 71100.00000 0 21278856.623 -12509197.152 -6460366.235 10 0 59692 72000.00000 0 21756913.521 -12914400.902 -3314792.817 10 0 59692 72900.00000 0 21862862.299 -13162599.682 -104886.860 10 0 59692 73800.00000 0 21619208.102 -13202671.705 3107058.382 10 0 59692 74700.00000 0 21060006.447 -12990358.708 6258741.612 10 0 59692 75600.00000 0 20229302.646 -12490346.311 9289058.792 10 0 59692 76500.00000 0 19179172.164 -11677977.487 12139282.928 10 0 59692 77400.00000 0 17967444.972 -10540526.930 14754195.684 10 0 59692 78300.00000 0 16655209.759 -9077982.571 17083149.437 10 0 59692 79200.00000 0 15304202.729 -7303301.003 19081039.937 10 0 59692 80100.00000 0 13974190.090 -5242125.546 20709171.510 10 0 59692 81000.00000 0 12720453.310 -2931977.783 21935999.061 10 0 59692 81900.00000 0 11591481.545 -420955.050 22737733.398 10 0 59692 82800.00000 0 10626966.991 2234013.290 23098798.928 10 0 59692 83700.00000 0 9856186.120 4969279.961 23012135.424 10 0 59692 84600.00000 0 9296833.844 7716878.311 22479338.251 10 0 59692 85500.00000 0 8954358.968 10407107.359 21510634.161 99